Regional Weather Roundup
Issued by NWS

Home | Current Version | Previous Version | Text Only | Print | Product List | Glossary Off
Versions: 1 2 3 4 5 6 7 8 9 10 11 12 13 14 15 16 17 18 19 20 21 22 23 24 25 26 27 28 29 30 31 32 33 34 35 36 37 38 39 40 41 42 43 44 45 46 47 48 49 50

000
ASUS45 KTFX 221410
RWRMT
MONTANA REGIONAL WEATHER ROUNDUP
NATIONAL WEATHER SERVICE GREAT FALLS MT
800 AM MDT FRI MAY 22 2015

NOTE: "FAIR" INDICATES FEW OR NO CLOUDS BELOW 12000 FEET WITH NO
SIGNIFICANT WEATHER AND/OR OBSTRUCTIONS TO VISIBILITY.

MTZ001>007-043-221500-
WEST OF THE DIVIDE

CITY           SKY/WX    TMP DP  RH WIND       PRES   REMARKS
KALISPELL      SUNNY     55  38  52 NE8       29.92F
MISSOULA       MOSUNNY   50  44  80 W3        29.96S
BUTTE          CLOUDY    41  37  86 CALM      30.00S
MULLAN PASS    SUNNY     51  38  60 CALM      29.99S
DEER LODGE       N/A     48  41  76 CALM      30.02S
EUREKA           N/A     52  34  50 CALM      29.96S
HAMILTON         N/A     50  45  81 S10       29.95S
LIBBY            N/A     52  39  62 CALM      29.94R
RONAN            N/A     54  45  71 CALM      29.97S
THOMPSON FALLS   N/A     53  43  69 NE6       29.97S
$$

MTZ008-052>055-221500-
SOUTHWEST MONTANA

CITY           SKY/WX    TMP DP  RH WIND       PRES   REMARKS
BOZEMAN        SUNNY     50  41  71 CALM      29.98S
DILLON         CLOUDY    47  42  83 W3        29.98R
W YELLOWSTONE  MOSUNNY   37  36  93 CALM      30.03R
THREE FORKS      N/A     46  27  48 CALM      29.98R
TWIN BRIDGES     N/A     48  40  74 E3        29.97S
$$

MTZ009-010-012-014-046-048-049-054-221500-
EAST SLOPES AND CENTRAL MONTANA

CITY           SKY/WX    TMP DP  RH WIND       PRES   REMARKS
CUT BANK       SUNNY     49  30  48 E3        29.99R
GREAT FALLS    SUNNY     50  41  71 E5        29.97R
MALMSTROM AFB  SUNNY     50  43  76 SW6       29.97S
HELENA         SUNNY     50  44  80 CALM      29.97R
CONRAD           N/A     49  40  71 NE1       30.00S
$$

MTZ011-013-016-021-045-047-050-051-221500-
NORTH CENTRAL MONTANA

CITY           SKY/WX    TMP DP  RH WIND       PRES   REMARKS
HAVRE          SUNNY     53  36  52 E12       29.99S
LEWISTOWN      SUNNY     52  41  66 SE6       29.98F
N BAR RANCH    FAIR      48  37  66 CALM      30.02F
CHINOOK          N/A     48  36  61 E10       30.02S
FORT BENTON      N/A     54  32  43 E5        29.98R
$$

MTZ017>020-022>027-061-062-221500-
NORTHEAST MONTANA

CITY           SKY/WX    TMP DP  RH WIND       PRES   REMARKS
GLASGOW        SUNNY     55  34  45 E17       30.06S
JORDAN           N/A     57  38  48 SE14      30.02F
SIDNEY         SUNNY     54  37  54 N3        30.13R
WOLF POINT     SUNNY     54  39  57 E12       30.10S
MALTA            N/A     54  38  54 NE9       30.00S
PLENTYWOOD       N/A     59  36  41 SE5       30.13R
POPLAR           N/A     55  37  50 E8        30.11S
$$

MTZ028>42-056>058-221500-
SOUTHCENTRAL AND SOUTHEAST MONTANA

CITY           SKY/WX    TMP DP  RH WIND       PRES   REMARKS
BAKER          PTSUNNY   51  35  54 SE10      30.10S
BILLINGS       PTSUNNY   48  43  82 CALM      29.97R
LIVINGSTON     MOSUNNY   44  42  93 W3        30.00R
MILES CITY     CLOUDY    56  40  55 VRB3      30.03S
BIG TIMBER       N/A     45  43  93 SW6       30.00S
EKALAKA          N/A     55  41  59 E9        30.04S
FORSYTH          N/A     54  39  58 E12       29.99S
LAUREL           N/A     49  41  74 CALM      29.96S
ROUNDUP          N/A     50  37  60 NE5       29.90S
$$

REGIONAL REPORTS...DAKOTAS

CITY           SKY/WX    TMP DP  RH WIND       PRES   REMARKS
WILLISTON      SUNNY     56  39  53 CALM      30.14R
MINOT          SUNNY     61  40  45 SE6       30.13F
DICKINSON      SUNNY     56  39  53 SE7       30.12S
BEACH          FAIR      55  36  47 SE14      30.12S
CROSBY         FAIR      57  41  54 S6        30.14S
WATFORD CITY   FAIR      55  37  50 E8        30.12S
BISMARCK       SUNNY     54  45  71 CALM      30.16F
GRAND FORKS    SUNNY     61  40  45 S7        30.18S
FARGO          SUNNY     60  44  55 E3        30.19S
BUFFALO SD       N/A     55  42  61 E9        30.03F
RAPID CITY     CLOUDY    54  46  74 SE12      30.11R
$$

REGIONAL REPORTS...WYOMING/IDAHO/WASHINGTON

CITY           SKY/WX    TMP DP  RH WIND       PRES   REMARKS
GILLETTE       CLOUDY    50  45  83 SE13      30.02S
SHERIDAN       PTSUNNY   50  44  80 NW3       29.97S
BUFFALO WY     PTSUNNY   50  45  83 SE12      29.99S
CODY           PTSUNNY   50  43  76 CALM      29.98R
YELLOWSTONE LA   N/A     40  35  83 CALM      30.06S
IDAHO FALLS    CLOUDY    50  47  89 NE3       29.94S
SALMON         CLOUDY    46  45  93 CALM      29.96S
BOISE          MOSUNNY   57  47  69 E5        29.89R
SPOKANE        PTSUNNY   60  50  69 SE6       29.87R
$$

REGIONAL REPORTS...ALBERTA

CITY           SKY/WX    TMP DP  RH WIND       PRES   REMARKS
EDMONTON       MOSUNNY   57  37  47 CALM      29.97S
CALGARY        MOSUNNY   48  32  53 VRB2      30.00R
LETHBRIDGE     MOSUNNY   50  36  57 W5        29.98S
MEDICINE HAT   SUNNY     57  32  38 NE5       30.00S
$$

REGIONAL REPORTS...SASKATCHEWAN

CITY           SKY/WX    TMP DP  RH WIND       PRES   REMARKS
SWIFT CURRENT  SUNNY     61  32  33 S10       30.08S
REGINA         SUNNY     55  41  58 E5        30.13S
SASKATOON      SUNNY     59  37  44 S3        30.10S
$$



USA.gov is the U.S. government's official web portal to all federal, state and local government web resources and services.